373  
NZUS93 KARX 260910  
HRRWXR  
 
CURRENT HOURLY OBSERVATIONS ACROSS  
MUCH OF THE UPPER MISSISSIPPI VALLEY  
NATIONAL WEATHER SERVICE LA CROSSE WI  
400 AM CDT SUN OCT 26 2014  
 
   
..SOUTHEAST MINNESOTA
 
 
 
CITY SKY/WX TMP DP RH WIND PRES REMARKS  
ROCHESTER CLEAR 41 26 55 N3 30.04F  
ROCHESTER/MAYO FAIR 41 31 66 CALM 30.03F  
WINONA CLEAR 36 32 87 CALM 30.05S  
AUSTIN CLEAR 32 30 93 CALM 30.03F  
ALBERT LEA CLEAR 36 34 93 CALM 30.02F  
DODGE CENTER PTCLDY 36 28 75 CALM 30.03F  
PRESTON CLEAR 41 26 55 N3 30.04F  
OWATONNA PTCLDY 32 30 93 SE3 30.02F  
FARIBAULT PTCLDY 28 27 93 CALM 30.03F  

 
   
..ELSEWHERE IN MINNESOTA
 
 
 
CITY SKY/WX TMP DP RH WIND PRES REMARKS  
MINNEAPOLIS CLEAR 40 31 70 CALM 30.03F  
INTNL FALLS CLEAR 24 22 91 CALM 29.96R  
DULUTH CLEAR 40 26 57 NW9 29.97S WCI 34  
RED WING CLEAR 30 28 93 CALM 30.03F  
REDWOOD FALLS CLEAR 36 28 73 E3 30.00F  
MANKATO PTCLDY 36 27 69 S5 30.02F WCI 32  
WORTHINGTON CLEAR 39 30 70 SE8 30.00F WCI 34  
FAIRMONT CLEAR 34 27 75 S3 30.01F  

 
   
..SOUTHWEST WISCONSIN
 
 
 
CITY SKY/WX TMP DP RH WIND PRES REMARKS  
LA CROSSE CLEAR 39 34 82 S5 30.04S  
PRAIRIE DU CHI CLEAR 36 32 85 CALM 30.05S  
BOSCOBEL CLEAR 32 30 92 CALM 30.05S  
LONE ROCK CLEAR 38 31 76 W6 30.04R WCI 33  
PLATTEVILLE CLEAR 42 31 65 NW6 30.04R  
FORT MC COY CLEAR 28 27 96 CALM 30.04S  
VIROQUA FAIR 39 29 66 SW5 30.04R  
WIS DELLS CLEAR 36 29 75 CALM 30.01F  

 
   
..ELSEWHERE IN WISCONSIN
 
 
 
CITY SKY/WX TMP DP RH WIND PRES REMARKS  
MILWAUKEE CLEAR 46 27 47 NW5 29.98S  
MADISON CLEAR 41 29 62 CALM 30.00F  
GREEN BAY CLEAR 40 29 64 W7 29.96R  
EAU CLAIRE CLEAR 35 27 72 SW6 30.02S WCI 30  
BLACK RVR FLS FAIR 27 27 100 CALM 30.02S  
MEDFORD CLEAR 36 26 65 W6 29.98F WCI 31  
WAUSAU CLEAR 40 27 59 NW5 29.97S  
WIS RAPIDS CLEAR 36 28 73 W3 30.01S  
MARSHFIELD CLEAR 39 26 59 W8 30.00S WCI 33  
RICE LAKE CLEAR 35 28 73 CALM 30.02F  

 
   
..NORTHEAST IOWA
 
 
 
CITY SKY/WX TMP DP RH WIND PRES REMARKS  
DECORAH CLEAR 37 28 70 CALM 30.03F  
MASON CITY CLEAR 34 31 88 CALM 30.05F  
CHARLES CITY CLEAR 37 32 81 N3 30.04F  
OELWEIN CLEAR 39 32 75 N5 30.05F  

 
   
..ELSEWHERE IN IOWA
 
 
 
CITY SKY/WX TMP DP RH WIND PRES REMARKS  
DES MOINES CLEAR 52 34 50 E7 30.01F  
IOWA CITY CLEAR 38 36 92 W3 30.04F  
FORT DODGE CLEAR 39 34 81 E5 30.02F  

 
   
..NORTHERN ILLINOIS
 
 
 
CITY SKY/WX TMP DP RH WIND PRES REMARKS  
CHICAGO-OHARE CLEAR 46 29 51 NW8 30.00S  
CHICAGO-MIDWAY CLEAR 48 30 49 NW7 30.00S  
MOLINE CLEAR 39 35 86 CALM 30.02F  
ROCKFORD CLEAR 39 32 76 CALM 30.03F  
PEORIA CLEAR 46 37 71 N3 30.03F  

 
 
NOTE: "FAIR" INDICATES FEW OR NO CLOUDS BELOW 12,000 FEET WITH NO  
SIGNIFICANT WEATHER AND/OR OBSTRUCTIONS TO VISIBILITY. WIND  
SPEEDS ARE IN MILES-PER-HOUR.  
 
CLICK HERE TO GO TO PREVIOUS BULLETINS.

The Nexlab WI Page
The Nexlab IA Page
The Nexlab MN Page Main Text Page